This is the latest recevied weather packets stored in our database for station/object W0AVQ. If no packets are shown the sender has not sent any weather packets the latest 10 day(s).
| Time | Temp. | Humidity | Pressure | Rain* | Wind** | Luminosity | Snow |
|---|---|---|---|---|---|---|---|
| 1777655072 | 16.67° C | 43% | 1020 hPa | 0 mm | - | 509 W/m² | - |
| 1777654771 | 16.11° C | 44% | 1020.1 hPa | 0 mm | - | 597 W/m² | - |
| 1777654468 | 16.11° C | 44% | 1020.1 hPa | 0 mm | - | 645 W/m² | - |
| 1777654166 | 16.67° C | 42% | 1020.3 hPa | 0 mm | - | 640 W/m² | - |
| 1777653863 | 16.67° C | 44% | 1020.2 hPa | 0 mm | - | 691 W/m² | - |
| 1777653560 | 16.11° C | 42% | 1020.1 hPa | 0 mm | - | 200 W/m² | - |
| 1777653255 | 16.11° C | 42% | 1020.2 hPa | 0 mm | - | 153 W/m² | - |
| 1777652952 | 16.11° C | 42% | 1020.3 hPa | 0 mm | - | 639 W/m² | - |
| 1777652649 | 15.56° C | 44% | 1020.2 hPa | 0 mm | - | 713 W/m² | - |
| 1777652346 | 15.56° C | 44% | 1020.5 hPa | 0 mm | - | 357 W/m² | - |
| 1777652043 | 15.56° C | 43% | 1020.4 hPa | 0 mm | - | 681 W/m² | - |
| 1777651740 | 15.56° C | 42% | 1020.1 hPa | 0 mm | - | 724 W/m² | - |
| 1777651436 | 15.56° C | 42% | 1020.3 hPa | 0 mm | - | 687 W/m² | - |
| 1777651134 | 15.56° C | 42% | 1020 hPa | 0 mm | - | 708 W/m² | - |
| 1777650830 | 15.56° C | 40% | 1020.3 hPa | 0 mm | - | 656 W/m² | - |
| 1777650527 | 15.56° C | 42% | 1020 hPa | 0 mm | - | 583 W/m² | - |
| 1777650225 | 15.56° C | 44% | 1020 hPa | 0 mm | - | 496 W/m² | - |
| 1777649922 | 15.56° C | 42% | 1020 hPa | 0 mm | - | 423 W/m² | - |
| 1777649619 | 15.56° C | 42% | 1019.8 hPa | 0 mm | - | 291 W/m² | - |
| 1777649315 | 15° C | 45% | 1020.1 hPa | 0 mm | - | 245 W/m² | - |
| 1777649012 | 15.56° C | 41% | 1020 hPa | 0 mm | - | 163 W/m² | - |
| 1777648710 | 15° C | 41% | 1020.1 hPa | 0 mm | - | 142 W/m² | - |
| 1777648406 | 15° C | 43% | 1019.8 hPa | 0 mm | - | 125 W/m² | - |
| 1777648102 | 14.44° C | 41% | 1019.8 hPa | 0 mm | - | 116 W/m² | - |
| 1777647799 | 15° C | 42% | 1019.9 hPa | 0 mm | - | 101 W/m² | - |
* Rain latest hour (hover to see other rain measurements)
** Current wind speed in m/s (hover to see current wind gust speed)